Location: Archamps
(46.1365°N, 6.1329°E)
Time: 01:10:06
(UTC+00:00)

Lacrosse 5 - Pass Details

Date: 28 January 2023
Orbit: 714 x 724 km, 57.0° (Epoch: 09 March)

Event Time Altitude Azimuth Distance (km) Brightness Sun altitude
Rises 18:36:37 0° 196° (SSW) 3,120 5.4 -21.2°
Reaches altitude 10° 18:39:14 10° 186° (S) 2,205 4.5 -21.7°
Enters shadow 18:42:20 26° 152° (SSE) 1,397 3.1 -22.2°
